Tracking 19817 objects as of 19-Aug-2019
HD Live streaming from Space Station
objects crossing your sky now

FENGYUN 1C DEB

Track FENGYUN 1C DEB now!
10-day predictions


NORAD ID: 32304
Int'l Code: 1999-025CWV
Perigee: 735.9 km
Apogee: 830.3 km
Inclination: 99.4 °
Period: 100.4 minutes
Semi major axis: 7154 km
RCS: 0.0093 m2 (small)
Launch date: May 10, 1999
Source: People's Republic of China (PRC)
Launch site: Taiyaun Space Center, China (TSC)

Note: This is SATELLITE DEBRIS
aabbcc
Your satellite tracking list
Your tracking list is empty




NASA's NSSDC Master Catalog

Two Line Element Set (TLE):
1 32304U 99025CWV 19230.40461637 +.00000151 +00000-0 +69397-4 0  9998
2 32304 099.3987 293.3732 0065959 102.6645 258.1922 14.34725313630760
Source of the keplerian elements: AFSPC